Regional Weather Roundup
Issued by NWS Charleston, SC

Current Version | Previous Version | Graphics & Text | Print | Product List | Glossary On
Versions: 1 2 3 4 5 6 7 8 9 10 11 12 13 14 15 16 17 18 19 20 21 22 23 24 25 26 27 28 29 30 31 32 33 34 35 36 37 38 39 40 41 42 43 44 45 46 47 48 49 50
000
ASUS42 KCHS 212025
RWRCHS

REGIONAL WEATHER ROUNDUP
NATIONAL WEATHER SERVICE CHARLESTON SC
400 PM EDT THU AUG 21 2014

NOTE: "FAIR" INDICATES FEW OR NO CLOUDS BELOW 12,000 FEET WITH NO
SIGNIFICANT WEATHER AND/OR OBSTRUCTIONS TO VISIBILITY.

NOT ALL STATIONS ARE QUALITY CONTROLLED BY THE NATIONAL
WEATHER SERVICE. USE DATA WITH CAUTION...ESPECIALLY
DEWPOINT OBSERVATIONS.

SCZ027-030-031-034>040-042>050-212100-
...SOUTH CAROLINA...

CITY           SKY/WX    TMP DP  RH WIND       PRES   REMARKS
N CHARLESTON   MOSUNNY   93  72  50 NW10      30.02F HX 101
WATERFRONT PRK   N/A     93 N/A N/A W6          N/A
FORT JOHNSON   NOT AVBL
MOUNT PLEASANT FAIR      97  73  46 N5        30.02S HX 107
JOHNS ISLAND   CLEAR     97  75  49 W5        30.02S HX 109
PINOPOLIS        N/A     93  73  52 NW6       29.97R HX 102
MONCKS CORNER    N/A     93  77  59 N6        30.03S HX 107
SUMMERVILLE    FAIR      97  70  41 NW6       30.03F HX 103
BEAUFORT MCAS  MOSUNNY   97  72  44 VRB3      30.02F HX 105
BEAUFORT ARPT  FAIR      95  73  49 NW8       30.02F HX 105
HILTON HEAD IS SUNNY     93  72  49 W3        30.05F HX 100
GEORGETOWN     NOT AVBL
WALTERBORO     CLEAR     97  61  30 N7        30.03F HX  97
ORANGEBURG     SUNNY     97  61  30 N8        30.04F HX  97
BARNWELL       FAIR      99  63  30 NW9       30.04F HX 100
AIKEN          FAIR      97  70  41 N6        30.09F HX 103
MANNING        FAIR      97  70  41 N5        30.02F HX 103
KINGSTREE      NOT AVBL
COLUMBIA       MOSUNNY   97  65  34 N8        30.04F HX  99
SUMTER         SUNNY     94  70  44 N9        30.03F HX 100
FLORENCE       SUNNY     96  68  39 N7        30.03F HX 101
MYRTLE BEACH   NOT AVBL
N MYRTLE BEACH RAIN      82  72  71 SE15      30.05R

$$

GAZ063-065-086>088-099>101-113>116-118-119-134-136>141-150-212100-
...GEORGIA...

CITY           SKY/WX    TMP DP  RH WIND       PRES   REMARKS
SAVANNAH ARPT  MOSUNNY   97  70  41 NW12      30.04F HX 103
HUNTER AAF     SUNNY     96  72  45 NW9       30.02F HX 104
FORT STEWART   SUNNY     96  69  40 NW8       30.03F HX 102
STATESBORO     NOT AVBL
SYLVANIA       CLEAR     98  69  39 N5        30.05F HX 103
CLAXTON        FAIR      97  70  41 NW8       30.04F HX 103
THOMSON        SUNNY     97  73  47 CALM      30.10F HX 107
AUGUSTA-BUSH   SUNNY     98  65  33 NE7       30.04F HX 101
AUGUSTA-DANIEL SUNNY     98  62  30 N6        30.06F HX  99
SWAINSBORO     FAIR     100  68  34 NE8       30.05F HX 106
VIDALIA          N/A     97  68  38 N7        30.05F HX 101
ALMA           SUNNY     96  70  42 NW8       30.05F HX 102
WAYCROSS       SUNNY    100  72  39 CALM      30.04F HX 109
JESUP            N/A     99  70  39 N6        30.04F HX 105
BRUNSWICK      SUNNY     97  63  32 W6        30.04F HX  98
SAINT SIMONS   SUNNY     97  68  38 NW7       30.03F HX 102

$$

SCZ027-028-034-036>038-045-046-048>050-GAZ119-141-212100-
...LAKE AND SUPPLEMENTAL COASTAL OBSERVATIONS...

STATION/POSITION TIME  TEMP    WIND        PRES    WAVE   SWELL
                       AIR SEA DIR/SP/G            HT/PER HT/PER/DIR
                 (UTC) (F)     (DEG/KT/KT) (MB)    (FT/S) (FT/S/D)
UPR LAKE MARION  NOT AVBL
WINYAH BAY       2000   92     300/  5     1016.0S
LAKE MURRAY      1900   93      CALM  /  5 1017.3F
ACE BASIN NERRS  2000   94     290/  2     1017.0S
FORT PULASKI     2000   92     320/  7/  9 1017.1F
SAPELO ISLAND    2000   98     280/  6     1018.0S

$$

ANZ835-935-AMZ111-154-330-350-352-354-374-450-454-472-212100-
...C-MAN AND BUOY OBSERVATIONS...

STATION/POSITION TIME  TEMP    WIND        PRES    WAVE   SWELL
                       AIR SEA DIR/SP/G            HT/PER HT/PER/DIR
                 (UTC) (F)     (DEG/KT/KT) (MB)    (FT/S) (FT/S/D)
FOLLY BEACH CMAN 2000   87     210/ 11/ 12 1017.0F
BUOY 41004       2000   83 85  230/  6/  8 1016.2F   2/ 4   2/ 4
BUOY 41008       2000   85 86  190/  6/  8 1017.1F   1/ 9   2/100/ 9
5E ST. MARYS GA  2000      85                N/A     1/ 9
FRYING PAN BUOY  NOT AVBL
BUOY 41025       2000   81     200/  8/ 10 1016.6F   3/ 9   3/ 50/ 9
CAPE LOOKOUT NC  2000   81     260/  9/ 10 1016.4F
BUOY 41002       1859   81 82  280/  8/ 10 1018.0F   3/ 5   2/240/ 5
BUOY 41010       2000   85 87  230/  4/  4 1018.7F   2/ 9   2/100/ 9
BUOY 41012       NOT AVBL
ST AUGUSTINE FL  2000   83     100/  7/  7 1018.5F
CAPERS NEARSHORE 1900   88     210/ 10/ 12   N/A
FRIPP NEARSHORE  NOT AVBL


$$


USA.gov is the U.S. government's official web portal to all federal, state and local government web resources and services.